Detroit, MI

8:30 PM EST on December 05, 2016 (GMT -0500)
Detroit Metro Wayne County

Weather History for KDTW - August, 2013

Change the Weather History Date:

Wednesday, August 28, 2013

  Actual Average Record
Temperature  
Mean Temperature 78 °F 70 °F  
Max Temperature 84 °F 80 °F 97 °F (1947)
Min Temperature 72 °F 61 °F 43 °F (1986)
Degree Days  
Heating Degree Days 0 0  
Month to date heating degree days 8 0  
Since 1 June heating degree days 35 37  
Since 1 July heating degree days 12 2  
Cooling Degree Days 13 6  
Month to date cooling degree days 190 207  
Year to date cooling degree days 756 693  
Since 1 June cooling degree days 653 645  
Growing Degree Days 30 (Base 50)    
Moisture  
Dew Point 72 °F    
Average Humidity 78    
Maximum Humidity 94    
Minimum Humidity 61    
Precipitation  
Precipitation 0.36 in 0.10 in 2.38 in (1932)
Month to date precipitation 3.89 2.71  
Year to date precipitation 28.89 22.14  
Snow  
Snow 0.00 in 0.00 in 0.00 in ()
Month to date snowfall 0.0 0.0  
Since 1 June snowfall 0.0 0.0  
Since 1 July snowfall 0.0 0.0  
Snow Depth 0.00 in    
Sea Level Pressure  
Sea Level Pressure 29.87 in    
Wind  
Wind Speed 8 mph (NW)    
Max Wind Speed 20 mph    
Max Gust Speed 24 mph    
Visibility 9 miles    
Events Rain , Thunderstorm    
T = Trace of Precipitation, MM = Missing Value Source: NWS Daily Summary

Daily Weather History Graph

Daily Weather History Graph

Search for Another Location

Airport or City:

Trip Planner

Search our weather history database for the weather conditions in past years. The results will help you decide how hot, cold, wet, or windy it might be!

Date:

Astronomy

Aug. 28, 2013 Rise Set
Actual Time 6:54 AM EDT 8:13 PM EDT
Civil Twilight 6:25 AM EDT 8:42 PM EDT
Nautical Twilight 5:50 AM EDT 9:17 PM EDT
Astronomical Twilight 5:13 AM EDT 9:53 PM EDT
Moon No Moon Rise 2:53 PM EDT (8/28)
Length of Visible Light 14h 16m
Length of Day
13h 18m
Waning Gibbous, 47% of the Moon is Illuminated
Aug 28
Waning Gibbous
Sep 5
New
Sep 12
First Quarter
Sep 19
Full
Sep 26
Last Quarter

Hourly Weather History & Observations

Time (EDT) Temp. Heat Index Dew Point Humidity Pressure Visibility Wind Dir Wind Speed Gust Speed Precip Events Conditions
12:20 AM 77.0 °F - 73.4 °F 89% 29.86 in 5.0 mi East 3.5 mph - 0.01 in Rain Light Rain
12:53 AM 78.1 °F - 75.0 °F 90% 29.85 in 7.0 mi SSE 6.9 mph - 0.03 in Rain Light Rain
1:07 AM 78.8 °F - 75.2 °F 89% 29.86 in 6.0 mi South 11.5 mph - 0.02 in Rain , Thunderstorm Thunderstorms and Rain
1:53 AM 77.0 °F - 75.0 °F 94% 29.82 in 3.0 mi SW 18.4 mph 24.2 mph 0.33 in Rain , Thunderstorm Heavy Thunderstorms and Rain
2:06 AM 77.0 °F - 75.2 °F 94% 29.82 in 6.0 mi SSW 15.0 mph - 0.03 in Rain Light Rain
2:53 AM 78.1 °F - 73.9 °F 87% 29.80 in 10.0 mi SSW 12.7 mph - 0.04 in   Mostly Cloudy
3:53 AM 77.0 °F - 73.9 °F 90% 29.80 in 10.0 mi SW 9.2 mph - N/A   Mostly Cloudy
4:17 AM 77.0 °F - 73.4 °F 89% 29.81 in 10.0 mi SW 8.1 mph - N/A   Overcast
4:53 AM 75.9 °F - 73.0 °F 91% 29.80 in 10.0 mi WSW 8.1 mph - N/A   Overcast
5:23 AM 75.2 °F - 73.4 °F 94% 29.82 in 10.0 mi WSW 6.9 mph - N/A   Overcast
5:53 AM 75.9 °F - 73.0 °F 91% 29.81 in 10.0 mi WSW 4.6 mph - N/A   Overcast
6:06 AM 75.2 °F - 73.4 °F 94% 29.83 in 10.0 mi West 5.8 mph - N/A   Overcast
6:53 AM 75.9 °F - 73.0 °F 91% 29.82 in 10.0 mi West 5.8 mph - N/A   Overcast
7:53 AM 75.9 °F - 73.0 °F 91% 29.83 in 9.0 mi NW 5.8 mph - N/A   Overcast
8:06 AM 75.2 °F - 73.4 °F 94% 29.85 in 9.0 mi NW 4.6 mph - N/A   Overcast
8:53 AM 78.1 °F - 73.0 °F 84% 29.84 in 10.0 mi NNW 6.9 mph - N/A   Mostly Cloudy
9:22 AM 78.8 °F - 73.4 °F 83% 29.86 in 10.0 mi NNW 10.4 mph - N/A   Scattered Clouds
9:53 AM 78.1 °F - 72.0 °F 81% 29.85 in 10.0 mi NNW 10.4 mph - N/A   Mostly Cloudy
10:29 AM 78.8 °F - 71.6 °F 78% 29.87 in 10.0 mi North 11.5 mph - N/A   Overcast
10:53 AM 79.0 °F - 72.0 °F 79% 29.86 in 9.0 mi North 9.2 mph - N/A   Overcast
11:53 AM 81.0 °F 84.9 °F 71.1 °F 72% 29.88 in 10.0 mi North 10.4 mph - N/A   Overcast
12:09 PM 80.6 °F 84.6 °F 71.6 °F 74% 29.89 in 10.0 mi North 6.9 mph - N/A   Overcast
12:53 PM 82.9 °F 88.0 °F 72.0 °F 69% 29.88 in 10.0 mi NNW 10.4 mph - N/A   Mostly Cloudy
1:53 PM 82.9 °F 87.5 °F 71.1 °F 67% 29.89 in 10.0 mi North 10.4 mph - N/A   Overcast
2:18 PM 82.4 °F 87.2 °F 71.6 °F 70% 29.91 in 10.0 mi North 10.4 mph - N/A   Overcast
2:53 PM 82.0 °F 85.9 °F 70.0 °F 67% 29.91 in 10.0 mi North 8.1 mph - N/A   Overcast
3:00 PM 82.4 °F 86.3 °F 69.8 °F 66% 29.92 in 10.0 mi North 8.1 mph - N/A   Overcast
3:53 PM 81.0 °F 84.4 °F 70.0 °F 69% 29.91 in 10.0 mi North 10.4 mph - N/A   Overcast
4:53 PM 82.0 °F 85.5 °F 69.1 °F 65% 29.92 in 10.0 mi North 9.2 mph - N/A   Overcast
5:53 PM 84.0 °F 88.4 °F 70.0 °F 63% 29.93 in 10.0 mi NNW 8.1 mph - N/A   Mostly Cloudy
6:53 PM 82.9 °F 85.8 °F 68.0 °F 60% 29.94 in 10.0 mi North 8.1 mph - N/A   Scattered Clouds
7:53 PM 81.0 °F 83.8 °F 68.0 °F 65% 29.94 in 10.0 mi North 5.8 mph - N/A   Partly Cloudy
8:53 PM 78.1 °F - 66.9 °F 68% 29.96 in 10.0 mi North 3.5 mph - N/A   Scattered Clouds
9:53 PM 77.0 °F - 66.9 °F 71% 29.99 in 10.0 mi North 8.1 mph - N/A   Scattered Clouds
10:53 PM 75.0 °F - 66.9 °F 76% 29.99 in 10.0 mi NNW 4.6 mph - N/A   Partly Cloudy
11:53 PM 73.0 °F - 66.9 °F 81% 30.00 in 10.0 mi North 3.5 mph - N/A   Clear